Temp
6 6 5 6 6 5 5 5 6 6 6 6 7 6 6 6 6 6 7 7 6 6 7 11 13 13 13 15 14 11 18 15 17 17 19 22 24 26 28 29 29 29 30 30 31 30 30 31 32 32 30 31 33 33
6 6 6 6 6 6 6 6 6 6 6 7 7 6 7 6 6 6 6 7 6 5 9 10 11 12 13 16 16 16 16 14 17 16 17 17 19 22 27 27 32 31 32 32 32 32 29 29 28 29 31 32 32 33
6 6 6 6 6 7 6 6 6 6 7 7 7 6 6 6 6 6 6 6 6 6 9 13 15 15 14 14 14 14 17 17 17 16 16 16 17 18 22 27 31 30 33 33 30 28 27 28 29 30 30 31 32 33
6 6 6 6 6 6 6 7 7 7 7 7 6 6 6 6 6 6 6 6 6 7 10 14 17 17 16 17 15 15 16 17 16 17 16 16 17 16 18 18 24 18 19 31 28 27 27 26 26 27 28 30 30 32
6 6 6 6 6 6 7 7 7 7 7 6 6 6 7 7 7 6 6 7 6 6 10 13 15 16 17 17 17 16 16 16 16 14 12 16 18 16 19 19 16 16 17 20 26 27 25 24 25 26 26 25 27 27
6 6 6 6 6 7 7 7 6 6 6 6 6 7 7 7 7 8 8 7 8 8 10 13 17 18 18 17 17 17 17 17 15 11 12 16 19 19 17 17 18 17 17 22 22 25 23 22 23 22 25 26 26 26
7 7 7 7 6 7 6 6 6 6 6 7 7 7 7 7 7 8 8 9 9 10 9 10 13 18 19 18 18 18 18 16 12 11 16 15 16 14 16 16 17 17 19 20 22 22 20 21 17 20 22 24 23 25
7 7 7 7 7 7 7 7 7 7 7 7 7 7 7 7 7 9 9 8 8 8 8 9 13 15 19 19 18 19 17 15 13 12 16 13 13 15 15 14 16 16 17 18 19 20 19 18 16 14 16 17 23 23
7 7 7 7 7 7 7 7 7 7 7 8 8 8 8 9 12 9 8 7 7 7 7 8 10 12 20 15 16 19 20 19 18 18 15 13 13 14 14 13 14 15 14 15 16 16 16 16 15 14 15 16 19 22
7 6 6 6 7 7 7 7 7 8 8 9 8 10 12 13 10 9 8 8 7 9 9 11 17 13 17 20 20 20 20 18 17 14 13 14 13 13 13 13 13 14 13 14 14 14 14 13 13 15 14 15 17 18
6 6 7 7 7 7 7 6 6 8 10 11 13 13 12 11 12 12 10 10 11 11 14 15 15 16 18 15 17 16 15 17 14 13 15 13 13 13 13 13 13 13 14 13 13 14 14 14 14 14 16 18 18 20
7 7 7 7 7 7 6 6 6 8 10 8 8 8 10 12 12 12 12 12 12 10 12 12 16 17 18 18 16 19 18 14 16 14 14 13 12 13 14 13 14 14 15 15 17 17 18 19 20 18 17 18 20 20
8 8 8 8 8 7 7 7 7 7 8 9 9 10 11 12 11 11 11 12 13 14 15 14 15 19 19 17 14 14 20 17 19 15 13 12 13 13 13 14 16 16 17 17 17 18 20 20 20 20 20 20 20 20
8 9 9 9 8 8 8 8 8 8 9 11 10 9 8 10 11 13 13 15 16 18 18 17 18 19 21 21 21 19 18 17 17 14 14 13 13 14 15 17 18 19 20 20 20 19 21 21 21 21 20 20 19 19
9 10 9 9 9 9 8 9 9 10 10 8 8 8 10 12 13 14 15 18 20 21 21 16 20 21 21 20 21 19 18 14 13 14 13 13 14 15 17 18 19 20 19 19 20 20 20 21 21 21 20 20 20 20
10 11 10 10 10 10 10 10 12 12 12 10 11 12 15 15 17 18 19 19 21 21 20 20 20 19 18 17 14 13 14 12 12 13 13 14 14 17 17 17 20 20 20 20 20 20 20 20 21 21 20 20 20 19
10 12 10 9 10 11 11 12 15 16 17 16 16 18 17 17 18 18 19 19 21 21 21 21 17 16 18 16 12 11 11 11 12 12 14 13 15 16 17 17 19 20 20 20 20 20 20 20 20 20 20 20 20 20
10 10 9 9 9 11 14 15 17 18 17 17 17 17 18 18 18 18 19 20 20 20 20 19 19 17 16 14 13 13 13 13 13 14 15 16 16 16 17 17 18 18 19 20 20 20 20 20 21 21 21 21 21 21
8 8 9 9 8 9 15 16 16 16 18 17 18 18 18 18 19 19 20 19 20 21 21 19 17 15 14 14 14 15 15 15 15 16 16 17 17 18 18 19 18 18 18 19 20 20 20 19 20 20 20 21 21 21
10 9 9 11 10 14 16 16 16 17 16 17 18 18 18 18 19 20 20 20 20 19 18 17 17 17 17 16 16 16 15 15 16 16 18 19 19 19 19 20 20 20 20 20 19 18 20 20 19 19 19 19 20 20
11 11 10 12 14 14 16 16 17 16 17 17 18 18 18 18 17 17 16 19 18 17 16 16 15 15 16 15 15 16 16 17 16 17 18 18 19 20 20 19 19 19 20 19 19 19 18 18 17 17 18 18 17 18
10 9 12 13 15 15 16 15 15 16 15 17 17 16 14 14 15 15 16 15 13 13 13 14 14 15 16 16 16 17 16 16 16 16 16 17 18 18 18 19 19 20 19 18 18 18 18 17 16 16 17 16 17 18
9 10 13 14 14 12 14 16 15 15 15 15 16 15 14 14 13 14 12 12 12 12 14 14 15 16 17 17 17 17 18 19 20 19 19 20 19 18 19 19 18 18 18 17 17 17 17 16 16 16 16 16 16 17
9 11 13 14 15 14 18 17 18 17 18 17 16 14 16 16 15 14 13 13 13 15 17 18 19 19 19 18 18 17 17 17 19 19 18 18 20 19 18 18 18 18 16 16 16 16 16 15 15 16 16 15 16 15
12 11 15 12 17 17 18 18 18 19 18 18 17 17 17 17 16 15 13 13 16 18 18 18 18 18 18 18 18 17 16 16 17 18 16 16 17 17 18 18 15 15 14 14 15 14 14 14 15 15 15 15 14 14
12 16 14 19 19 19 19 18 18 18 18 18 18 20 19 18 17 14 12 14 16 17 17 17 17 17 17 16 16 16 15 15 16 16 15 15 15 15 15 16 16 14 12 12 12 13 13 13 13 13 14 14 13 13
16 19 19 18 18 19 19 20 20 20 19 19 20 20 19 17 14 13 15 15 15 15 15 15 15 15 16 15 15 14 14 14 14 14 15 15 14 13 12 13 12 10 11 10 10 10 10 10 10 10 10 11 11 11
19 19 18 20 20 20 19 20 20 19 20 20 18 17 15 13 12 13 13 13 13 12 12 13 13 14 14 14 14 14 14 13 13 13 14 15 13 12 11 10 10 9 9 8 8 8 8 7 7 8 8 9 9 9
20 22 21 20 21 20 20 19 19 20 19 20 17 14 12 10 9 10 11 11 11 10 11 14 14 14 14 14 13 13 12 11 11 12 12 12 12 11 9 9 9 8 8 8 8 6 6 6 6 7 7 8 8 8
21 23 20 20 20 18 19 20 19 19 17 15 12 10 9 9 8 9 10 11 13 15 15 15 14 13 13 13 12 11 11 9 8 8 9 9 9 8 7 7 7 7 7 7 7 7 6 7 7 7 7 6 6 5
22 22 21 20 20 20 20 19 18 17 17 15 14 12 12 13 12 13 14 14 15 15 14 13 13 12 11 11 10 9 9 8 6 5 4 5 5 5 5 6 6 6 6 6 6 7 6 6 6 6 5 5 5 4
23 22 21 21 20 21 19 17 17 17 17 16 16 15 14 13 12 14 13 13 13 14 12 12 11 11 9 9 8 8 7 8 6 4 3 2 3 3 4 5 5 5 5 6 6 6 6 5 5 5 4 4 4 3
23 23 22 22 22 21 21 18 16 16 17 18 16 16 16 15 13 15 14 12 12 12 11 11 11 10 9 8 7 7 7 6 4 2 2 1 1 1 3 3 4 4 4 5 5 5 4 4 4 3 3 3 3 3
Height
804 798 793 787 782 777 772 769 766 764 761 759 758 757 756 755 755 755 754 754 756 749 741 735 727 722 717 708 704 709 684 695 694 693 678 659 649 630 626 611 616 624 629 629 629 640 644 611 613 632 628 618 614 611
800 794 788 783 777 771 767 764 762 760 758 756 755 754 752 752 752 752 751 749 749 749 735 727 723 719 713 706 699 696 695 704 688 689 678 675 664 645 619 625 591 609 598 612 611 612 614 617 621 622 617 617 613 607
797 791 786 780 774 768 764 761 759 757 755 754 753 752 751 750 749 749 748 746 746 741 730 712 699 694 697 701 706 704 695 694 691 693 691 682 674 661 639 613 589 590 581 591 608 622 621 617 618 626 623 620 612 602
795 789 784 779 774 769 764 761 759 756 754 753 751 750 749 748 747 747 745 744 745 741 725 696 685 685 687 687 693 700 697 694 694 691 688 678 675 662 654 646 622 648 633 592 610 619 623 631 633 632 632 625 621 614
793 788 784 780 775 770 765 762 759 756 754 752 750 749 747 746 745 744 742 740 740 742 721 700 692 681 679 682 685 692 696 697 696 698 698 678 663 671 648 630 642 647 653 641 608 609 622 641 640 640 643 645 639 636
793 789 785 780 775 771 767 763 760 757 754 752 750 748 746 745 743 741 736 737 735 735 726 694 679 672 672 676 682 685 690 693 699 706 696 677 659 657 659 658 659 654 651 632 624 623 644 654 655 659 653 651 651 649
794 790 785 781 776 772 769 765 761 757 754 751 749 747 745 743 742 740 736 735 733 732 730 713 689 671 669 674 679 682 687 692 701 704 681 681 675 677 667 670 663 659 650 646 644 649 659 664 675 671 666 665 663 660
794 790 786 782 777 773 769 765 761 757 753 749 746 744 742 740 738 734 733 732 733 733 732 720 690 676 669 666 670 674 682 690 693 696 679 684 682 675 678 677 672 671 666 661 661 662 668 674 680 681 676 673 671 673
795 790 786 782 778 774 770 765 760 755 749 745 742 740 738 735 729 730 730 730 731 735 727 721 706 691 657 671 668 666 665 670 673 668 681 683 686 681 681 681 678 676 677 679 678 676 680 685 689 691 684 691 689 677
796 791 786 782 778 774 769 764 758 752 747 743 740 737 729 725 727 729 727 726 729 723 723 707 678 684 667 652 652 656 659 668 669 686 685 687 689 688 685 684 683 683 685 685 682 684 684 689 697 698 699 694 689 682
796 791 786 782 778 774 768 762 757 751 745 741 735 731 728 726 723 720 718 716 712 707 696 686 682 673 663 672 666 671 678 669 681 683 681 695 697 695 694 691 691 688 690 693 693 693 696 702 704 702 700 698 695 689
794 790 786 782 777 771 764 757 753 751 748 746 744 740 732 725 722 717 711 707 700 699 692 693 679 672 670 672 672 655 662 679 671 679 688 697 702 699 696 696 695 694 694 694 694 693 696 693 696 699 699 696 693 691
793 788 784 780 774 767 762 756 750 747 746 744 742 738 736 727 726 720 711 708 701 690 687 685 679 663 659 666 672 668 651 664 660 681 698 705 705 702 702 701 699 699 698 696 696 696 693 693 694 695 696 694 693 694
791 785 780 776 772 765 758 753 750 747 745 743 742 742 746 736 730 718 711 700 691 678 675 676 669 660 647 645 644 653 663 672 677 694 701 707 707 704 701 698 696 696 694 694 695 698 692 691 693 692 694 694 696 696
788 782 778 775 770 762 756 753 751 749 748 751 753 755 745 734 726 715 704 690 679 673 665 676 664 657 656 657 654 662 670 695 705 700 704 708 707 706 701 698 696 697 699 699 697 696 694 694 694 694 696 695 695 696
786 779 778 772 765 759 755 751 750 749 749 751 749 742 729 722 710 701 695 689 682 674 669 668 669 674 680 687 696 702 699 712 715 707 709 709 710 706 707 704 698 699 700 702 700 699 699 698 697 696 699 698 698 699
785 782 776 770 763 757 755 753 748 742 738 739 736 728 725 720 714 708 703 698 688 676 674 673 691 696 691 699 715 725 724 725 718 715 712 713 712 711 710 707 702 702 701 701 702 701 700 700 700 700 701 700 699 699
786 781 775 770 763 758 755 753 746 739 740 738 736 732 728 722 721 713 707 703 697 689 687 692 692 700 706 719 723 721 720 717 718 716 714 713 713 713 713 712 710 709 707 704 703 705 708 702 700 700 700 700 697 696
783 778 774 771 767 764 757 755 754 746 740 743 738 734 730 726 722 716 710 708 702 697 694 698 714 723 725 724 723 720 718 717 717 717 716 715 715 713 712 712 712 713 713 713 710 707 708 710 709 707 706 703 700 698
779 776 774 770 768 762 756 757 756 751 749 747 740 736 732 729 725 720 715 711 708 709 713 718 721 722 723 725 725 724 724 722 721 721 716 713 715 716 715 713 713 713 713 714 715 716 713 714 715 715 713 711 707 706
778 777 772 770 767 765 762 760 753 757 754 747 742 739 737 735 736 736 735 722 723 726 731 734 734 734 732 733 732 729 727 726 726 726 722 723 719 717 717 718 719 719 719 720 720 721 722 722 721 720 716 714 714 711
781 778 775 771 768 766 764 765 764 762 760 751 750 751 757 755 750 748 745 744 750 752 750 746 743 741 739 739 738 735 735 733 733 733 731 727 724 724 726 725 723 722 723 725 725 724 724 725 726 723 720 719 714 710
782 780 776 773 771 772 770 762 762 762 762 761 756 758 760 759 763 761 763 762 761 759 755 751 748 745 743 743 743 741 737 732 728 728 727 725 727 728 726 726 727 728 729 729 728 728 727 728 725 724 721 719 715 712
784 783 778 775 770 773 763 762 759 758 757 758 761 763 759 759 759 763 766 768 766 760 753 749 746 744 743 744 743 746 745 741 735 731 734 731 726 724 727 727 726 727 731 732 731 730 729 728 727 723 721 719 717 717
786 784 778 779 769 766 762 762 761 756 758 757 759 757 756 757 758 766 774 774 767 760 759 757 755 755 754 753 752 751 751 747 744 740 742 740 736 732 728 728 731 736 738 738 735 734 732 730 727 724 723 720 721 721
785 775 780 767 764 763 761 761 760 760 758 756 755 748 748 752 757 773 785 780 774 770 768 766 764 762 762 763 762 760 757 754 750 747 747 745 745 744 742 740 738 739 746 744 742 739 736 734 731 728 725 723 723 722
779 772 768 771 769 766 762 757 757 754 755 757 751 748 749 760 777 787 785 783 781 780 778 777 775 772 769 767 766 765 762 759 756 754 749 748 748 751 753 751 751 755 751 749 749 745 744 743 740 737 734 732 729 727
775 772 773 766 765 762 763 756 757 757 755 752 759 762 772 781 792 793 792 790 789 789 788 785 782 778 773 771 769 765 763 764 761 758 753 748 751 755 759 758 758 759 756 754 753 751 750 749 746 741 739 736 733 731
770 763 766 764 760 762 761 767 766 763 765 758 763 778 791 799 802 799 798 796 795 793 789 783 780 777 776 774 772 771 769 770 769 765 761 759 759 762 763 763 761 759 757 756 754 753 753 751 748 744 742 738 736 734
766 761 766 765 768 774 770 767 770 775 779 780 789 798 801 802 801 801 799 796 792 785 782 781 780 781 781 779 777 777 775 778 779 779 777 773 771 770 769 767 765 762 760 758 755 753 751 749 745 742 742 741 741 741
764 763 766 768 770 771 771 777 780 782 785 789 792 795 796 797 798 796 793 790 786 785 786 786 785 786 787 784 784 785 783 784 787 787 787 783 779 777 774 771 768 765 763 760 757 754 753 750 748 748 747 746 745 743
764 765 765 766 766 769 774 780 781 782 782 784 786 787 790 794 796 794 797 794 791 790 791 790 790 790 792 790 789 788 789 786 788 790 789 786 784 781 777 774 771 769 766 761 759 756 755 754 753 752 750 749 747 746
762 762 765 764 761 763 764 775 783 783 780 776 784 785 782 786 793 793 795 797 798 797 795 793 792 793 793 794 793 792 790 788 789 790 789 788 786 783 780 778 775 772 768 764 761 760 759 758 756 755 753 751 748 745
Wind_Speed
31 32 32 31 31 29 26 23 20 20 18 17 15 14 15 13 11 11 10 14 14 3 9 19 24 21 18 13 10 9 6 4 3 7 10 13 15 19 20 22 25 23 21 19 19 22 24 5 8 12 6 11 13 13
30 29 27 28 30 28 23 20 15 17 16 13 14 13 9 8 9 9 10 11 15 6 10 24 29 28 26 21 15 13 8 2 3 5 2 5 4 8 17 16 25 24 21 17 13 14 9 8 9 2 7 9 8 8
25 25 26 25 25 21 16 14 13 13 12 13 11 8 9 10 9 14 11 11 6 3 10 16 18 26 30 35 30 11 10 4 4 8 4 4 6 3 8 12 21 8 23 19 12 12 10 12 9 4 5 4 2 5
23 24 23 21 21 20 18 15 13 12 11 9 8 9 9 9 8 8 9 7 6 4 5 11 7 4 6 14 27 26 19 5 4 6 6 4 5 6 3 6 3 5 13 8 16 16 16 14 10 9 9 9 11 16
21 20 18 20 21 20 18 14 13 12 9 9 8 9 7 6 7 10 13 15 16 4 6 12 23 21 20 20 15 23 19 12 7 4 3 3 3 2 7 3 4 3 5 5 9 17 18 14 11 9 10 13 12 15
19 18 19 20 20 19 17 16 14 13 11 10 9 8 7 8 11 9 2 1 7 13 5 5 10 3 3 13 11 12 10 7 3 2 4 4 7 6 4 3 8 5 12 5 12 20 21 18 19 19 14 12 12 13
19 17 19 20 20 19 18 18 16 14 12 12 11 10 10 10 10 5 5 7 10 2 3 5 4 4 6 11 8 7 9 4 3 2 5 2 4 6 3 3 9 10 10 11 16 18 15 14 10 16 17 13 12 12
20 18 18 20 18 16 17 19 20 19 18 16 15 15 14 14 12 8 3 5 5 3 3 3 6 4 13 9 7 7 7 6 7 5 2 3 5 2 2 7 10 10 15 18 18 17 16 13 15 14 16 18 10 11
20 19 18 17 16 16 19 21 25 26 20 15 15 13 8 6 3 1 3 5 8 3 2 2 3 3 7 2 2 8 7 7 4 1 1 3 1 1 7 8 10 13 9 13 16 18 19 17 15 13 15 13 15 9
21 20 19 18 18 19 22 25 28 27 12 10 6 4 3 2 5 4 5 3 4 5 4 4 4 3 8 6 6 6 3 2 1 4 1 3 2 8 10 11 11 12 11 8 13 17 17 14 10 7 5 6 9 14
21 21 18 18 21 27 29 28 27 23 10 6 3 3 13 12 5 2 2 3 3 4 4 3 6 6 5 3 3 4 3 0 1 3 1 3 2 5 9 11 9 10 9 9 10 10 9 6 5 2 6 1 6 0
21 20 19 21 25 35 34 27 22 14 10 8 10 10 7 3 2 4 4 4 4 2 2 3 4 4 1 3 5 6 4 1 3 2 3 2 3 4 9 9 8 7 8 8 9 8 3 7 9 7 10 7 3 5
21 23 24 24 27 38 34 22 18 13 6 4 3 3 4 2 3 5 7 2 4 6 5 4 4 3 1 7 5 1 3 3 5 4 3 3 4 2 6 5 8 8 8 6 3 5 7 7 8 7 5 5 7 4
25 28 24 19 29 39 31 19 14 7 3 3 4 4 4 4 4 4 9 8 7 6 5 5 4 4 4 3 3 6 6 3 2 3 3 5 5 2 3 7 8 4 6 8 10 5 6 9 8 9 9 10 8 8
29 25 11 23 36 36 24 14 8 6 5 3 3 4 4 5 10 11 10 7 8 9 7 1 4 7 6 5 6 6 5 4 6 4 4 5 7 2 4 3 5 9 7 6 8 8 8 8 9 11 11 10 9 10
27 12 16 35 36 32 18 9 3 3 2 2 4 2 5 7 11 11 12 12 11 10 5 2 5 4 7 5 7 8 4 5 3 1 6 6 7 7 3 1 5 8 9 8 6 11 10 8 6 11 9 10 11 10
19 12 30 33 35 23 12 6 4 2 5 3 3 9 9 9 9 12 11 11 12 9 9 5 7 6 3 4 4 4 3 0 4 4 4 4 4 5 4 4 5 8 7 7 7 7 5 7 10 9 7 6 6 7
14 23 27 27 28 15 5 6 4 3 5 7 8 9 9 8 10 10 10 9 8 8 8 6 6 10 5 4 3 3 1 0 5 4 3 5 6 5 4 6 9 9 10 11 6 9 9 10 7 5 4 5 3 6
22 21 19 24 14 5 4 4 5 4 5 7 8 7 7 7 8 8 8 7 8 7 7 6 7 5 5 4 6 8 7 5 6 6 6 8 10 8 8 9 11 13 13 12 14 12 12 11 11 14 14 14 13 12
13 11 19 11 6 4 3 3 3 3 5 5 7 7 7 8 8 9 10 10 9 9 9 6 8 7 7 8 7 8 8 7 6 6 5 6 10 12 12 10 8 8 10 8 12 16 11 11 13 14 13 13 12 13
8 11 11 11 4 7 4 4 3 3 4 4 6 4 7 10 12 11 11 10 10 12 10 8 9 8 11 12 14 12 9 9 8 7 6 6 10 10 10 9 8 10 10 10 8 10 11 12 14 15 13 13 13 13
8 13 5 5 4 4 3 6 4 5 3 3 8 8 6 7 8 9 7 8 4 4 5 6 7 8 10 12 11 14 12 12 10 7 7 6 1 4 4 7 8 6 8 10 10 10 11 13 13 15 13 13 13 12
9 5 4 4 3 3 2 4 2 3 4 4 4 4 2 4 4 6 3 5 4 5 7 4 6 10 9 17 20 22 23 16 7 8 6 4 5 6 5 6 7 7 8 10 10 11 12 12 12 13 12 14 13 13
6 5 4 4 4 3 3 4 2 2 3 2 3 3 3 3 0 2 6 4 3 2 4 10 15 8 11 15 11 15 21 20 17 15 16 16 10 8 5 5 7 8 10 13 16 16 16 17 17 14 13 14 14 15
4 4 3 3 1 3 2 3 2 2 3 2 2 2 3 1 3 4 5 5 8 10 10 12 11 8 9 10 12 18 21 20 16 10 17 17 17 16 16 17 21 17 17 17 17 18 18 17 17 16 15 14 14 15
3 2 3 6 4 5 5 5 4 5 3 3 3 2 1 1 5 5 3 7 7 8 9 10 10 10 10 16 11 14 20 20 16 12 13 14 14 15 11 9 9 16 21 19 19 19 19 20 20 19 19 18 15 16
4 5 1 1 3 3 3 2 1 2 3 4 3 3 4 4 5 3 2 7 7 15 18 20 20 17 12 14 14 14 16 18 17 17 14 7 9 14 17 16 15 18 18 16 18 18 17 19 20 20 19 20 20 20
4 5 7 6 3 2 4 6 5 6 7 5 3 4 4 5 4 6 6 15 20 22 19 14 12 15 15 16 18 19 15 18 18 17 15 10 16 17 16 16 16 15 16 12 16 17 16 18 19 18 16 16 16 17
2 5 4 7 5 3 5 6 7 7 9 8 3 5 3 3 6 10 9 8 6 5 6 8 9 14 18 18 16 17 17 18 19 16 15 10 13 17 18 17 18 17 17 17 14 10 14 17 14 13 14 15 16 16
8 4 2 5 9 5 5 7 9 9 9 9 6 7 4 2 4 2 3 3 4 6 13 16 17 18 18 17 16 17 16 17 19 18 12 11 17 19 18 18 17 17 16 16 15 15 16 17 14 15 17 18 18 18
4 7 6 5 6 5 8 10 10 10 8 8 7 6 4 4 5 1 6 8 12 15 15 16 16 17 17 16 15 14 13 15 15 16 18 17 16 16 15 16 16 16 16 15 15 15 16 17 17 17 16 16 16 16
3 3 4 3 4 6 10 4 2 4 3 4 5 3 4 2 2 2 13 15 15 15 13 14 15 14 15 15 14 11 11 10 13 15 18 16 14 14 15 15 15 16 16 15 14 15 16 17 17 17 17 17 18 18
2 7 6 6 3 2 5 5 4 3 2 4 4 1 3 4 4 4 6 9 10 13 14 14 11 11 10 12 13 13 12 10 7 12 19 16 12 12 13 15 16 18 18 18 18 18 18 18 18 17 17 16 17 16
Wind_Direction
328 326 323 321 320 317 313 308 307 310 306 299 293 286 287 278 264 242 257 230 225 235 269 269 279 278 282 275 267 311 240 165 230 242 237 238 238 234 238 229 212 204 203 217 216 229 235 85 187 227 4 322 312 303
335 332 329 330 332 325 317 318 312 309 307 304 307 299 287 276 258 241 274 260 234 232 270 297 276 270 264 263 283 288 295 343 275 265 288 323 323 298 236 254 206 209 209 206 220 214 91 84 77 37 337 313 316 303
339 342 340 341 344 347 342 332 323 320 316 306 311 307 301 274 267 238 264 275 289 311 275 256 257 257 232 237 244 259 257 204 241 338 295 272 274 288 259 246 212 222 213 207 149 124 102 88 82 115 33 23 313 77
343 348 349 350 355 355 357 353 344 334 333 335 319 314 311 294 272 255 255 260 243 279 285 269 331 264 252 222 211 219 243 141 319 321 295 266 272 359 262 306 331 16 298 177 101 116 102 80 78 56 20 46 50 63
352 356 0 359 359 360 356 350 346 346 344 333 327 321 313 310 294 270 262 256 244 226 298 302 298 273 233 223 211 208 226 254 278 312 292 269 282 357 297 256 33 11 3 356 220 128 89 90 90 103 76 57 50 79
6 5 2 5 5 4 5 5 4 356 350 343 337 330 308 298 301 291 243 183 243 230 280 306 1 215 221 164 190 190 206 211 157 296 247 267 291 316 295 83 27 10 291 349 60 94 96 86 63 39 63 84 89 73
3 1 1 2 1 2 3 3 358 349 342 332 322 313 304 297 297 279 286 319 317 283 291 290 279 218 152 159 178 181 188 155 130 252 233 294 296 347 347 30 31 24 21 81 103 108 91 72 60 41 42 47 57 76
2 357 353 357 4 8 7 1 353 347 333 319 312 305 296 288 282 271 310 274 254 201 254 274 298 309 181 166 158 164 165 187 184 229 147 6 324 304 67 15 90 74 69 63 72 83 94 90 57 30 18 9 61 46
2 0 358 356 357 354 350 350 349 346 330 318 310 299 289 241 246 50 270 270 205 257 289 270 279 292 212 40 284 180 183 196 213 183 45 179 315 342 70 56 51 67 71 91 88 82 71 70 63 44 40 8 352 32
358 356 356 356 353 348 344 341 341 344 334 325 312 232 273 48 308 275 172 183 194 195 220 260 275 296 350 219 150 167 180 172 235 81 241 46 69 36 58 56 53 69 70 76 90 77 80 62 34 39 79 5 332 340
352 355 355 357 357 350 340 334 332 341 345 324 313 296 331 315 278 236 262 229 218 232 224 295 302 319 35 12 8 42 161 129 158 193 183 85 21 46 40 59 49 47 99 101 94 95 91 104 120 16 339 163 246 275
343 340 337 340 342 347 346 337 332 338 329 306 295 299 286 288 289 297 309 309 247 222 232 220 314 323 356 203 237 163 189 142 80 123 82 67 358 37 63 52 30 28 56 61 79 80 145 157 141 165 183 201 300 76
342 336 331 327 334 345 342 339 339 331 332 231 241 316 347 14 339 323 339 355 343 329 36 347 300 307 328 177 219 256 127 49 99 40 59 74 209 98 132 139 130 142 116 75 40 191 140 102 110 104 81 64 117 130
342 339 336 337 339 343 344 342 348 357 318 25 356 10 11 349 332 306 323 325 304 300 3 332 332 294 312 331 28 15 75 23 80 71 74 140 141 154 134 170 130 111 99 118 114 99 38 72 70 79 94 102 90 48
339 339 340 341 337 345 344 348 11 5 25 48 25 4 331 297 279 265 277 333 338 332 346 146 293 8 12 1 19 21 44 72 21 44 92 158 141 122 98 79 117 119 123 97 67 66 53 62 77 66 58 70 73 87
343 346 343 334 340 346 350 350 332 322 156 157 182 302 316 339 358 2 1 4 346 325 274 240 1 35 31 24 13 18 29 27 353 25 127 125 146 146 140 103 102 98 123 111 81 65 51 62 62 78 53 50 53 52
343 336 328 335 339 349 347 346 318 291 6 6 331 13 356 355 359 2 351 358 329 360 13 28 31 24 98 30 35 15 340 30 330 19 81 111 91 94 44 67 48 80 74 85 96 71 33 77 58 53 38 20 76 61
318 322 326 340 345 341 350 6 313 7 18 25 7 11 354 9 1 357 6 7 1 7 38 56 47 33 44 39 23 9 315 341 169 188 100 87 86 95 89 73 69 62 44 43 46 90 24 23 43 58 69 352 199 82
317 321 332 343 347 317 344 28 338 2 16 39 356 5 4 11 12 11 7 21 6 28 36 44 46 36 43 32 28 36 41 53 78 73 69 70 66 56 71 92 84 82 68 51 31 47 66 43 19 12 13 5 351 33
332 335 334 342 347 307 339 28 301 345 9 346 8 3 19 17 18 17 27 32 54 54 57 63 66 51 42 36 28 32 32 36 57 73 77 96 98 76 55 58 59 82 82 78 67 25 25 19 18 359 9 344 343 349
351 326 343 8 10 18 358 350 20 18 330 341 8 351 27 25 30 27 11 29 39 33 41 34 42 38 44 42 36 31 34 37 51 44 40 45 25 49 59 67 58 47 38 32 22 33 23 19 4 351 347 358 348 320
332 346 331 356 350 5 30 26 359 345 323 353 17 29 16 13 19 17 14 36 35 29 17 21 32 42 56 52 42 40 62 67 68 43 15 347 45 70 59 24 23 25 42 27 17 14 13 16 8 346 351 352 340 346
342 339 320 342 350 38 338 342 47 39 26 16 15 57 38 50 16 358 33 12 13 342 356 45 90 97 83 62 48 29 14 7 38 53 38 27 78 25 9 18 18 33 5 22 6 8 1 356 7 337 353 350 345 350
348 349 351 357 356 6 312 17 18 54 96 43 35 14 59 52 85 87 55 54 32 184 49 28 31 36 47 35 35 35 12 9 3 15 31 355 349 9 347 343 2 25 26 3 0 356 353 349 337 340 355 343 356 355
319 348 306 318 235 317 34 37 46 45 57 39 42 50 36 9 69 70 46 21 17 33 26 33 43 38 25 23 20 19 15 8 5 359 18 1 360 352 357 18 63 35 17 355 351 347 343 340 340 342 336 340 355 346
22 75 9 357 14 348 359 7 23 11 1 7 18 339 136 259 61 57 39 348 22 26 27 24 19 17 26 20 11 7 2 359 3 2 14 11 20 12 7 1 354 14 1 1 349 348 352 350 343 343 341 343 350 341
357 15 18 128 307 310 325 19 30 339 10 20 315 325 11 52 60 62 55 19 26 22 27 23 16 9 4 4 3 2 359 1 7 346 345 359 43 43 16 8 24 7 345 6 359 353 359 351 345 341 339 335 332 331
343 349 348 348 342 29 339 346 23 9 10 12 34 4 60 26 58 32 31 24 26 23 14 352 350 347 357 359 355 355 8 4 0 359 348 4 34 36 19 4 10 360 348 8 2 353 358 350 340 335 339 336 338 338
301 25 354 327 42 32 0 33 10 25 353 335 29 69 83 68 36 46 37 16 2 15 319 330 354 358 360 359 7 5 20 14 10 6 7 9 13 9 4 357 352 352 351 349 356 25 14 352 339 342 338 340 343 356
8 5 37 15 36 43 31 50 56 61 47 62 92 101 85 169 190 60 14 352 320 323 2 360 9 14 2 359 8 6 36 28 25 19 358 355 358 355 353 349 351 350 353 351 350 351 11 348 353 2 6 358 360 349
14 13 26 56 53 26 92 89 83 69 75 85 84 116 147 153 147 265 23 330 352 9 16 358 8 19 7 6 17 12 4 27 24 17 9 353 354 356 352 356 357 357 357 353 356 357 1 356 2 4 359 355 353 344
358 7 6 351 91 100 128 129 109 90 124 131 137 149 140 164 141 67 17 5 11 11 19 10 12 15 14 2 9 16 356 6 22 11 8 5 3 3 360 6 3 3 356 350 357 358 5 2 359 359 354 352 350 347
12 46 18 360 15 24 119 132 169 160 183 97 91 330 86 65 66 27 42 17 16 3 359 359 9 7 17 7 7 357 357 23 47 40 29 26 22 14 7 14 7 5 359 358 3 1 1 359 359 358 352 347 344 344